Location: Unspecified
(49.9820°N, 20.4363°E)
Time: 05:06:42
(UTC+01:00)

ISS - Pass Details

Date: 13 January 2018
Orbit: 402 x 407 km, 51.6° (Epoch: 22 January)

Event Time Altitude Azimuth Distance (km) Brightness Sun altitude
Exits shadow 05:33:47 33° 210° (SSW) 705 -2.8 -18.3°
Drops below altitude 10° 05:36:44 10° 146° (SE) 1,462 -0.4 -17.9°
Sets 05:38:55 0° 136° (SE) 2,320 1.0 -17.5°
